Weather in Tallahassee

United States     30°26′16″N   84°16′50″W
temp.,
°C
wind,
m/s
gust,
m/s
humid.,
%
clouds,
%
prec.,
mm/h
press.,
hPa
HPBL,
m
18 september, sat
sat1823:00+24e1194100 2.0 101811
02:00+24e119597 2.6 101716
05:00+22ne129692 0.0 101732
08:00+23ne119591 0.0 101845
11:00+28ene237581 0.1 1018707
14:00+29sse116597 0.4 1017761
17:00+25wnw2493100 2.1 1016139
20:00+24nnw2496100 2.8 1016131
19 september, sun
sun1923:00+23nne249799 0.4 1017142
02:00+22ene1398100 3.9 101692
05:00+23ene2398100 3.9 1015104
08:00+23e2598100 8.1 1016202
11:00+25e3691100 5.3 1017323
14:00+25e3692100 8.4 1016324
17:00+25ene3590100 2.8 1014342
20:00+23e259599 6.2 1015130
20 september, mon
mon2023:00+22e2598100 1.3 1016155
02:00+22e259976 1.4 1015178
05:00+22e1399100 0.0 101597
08:00+22e1298100 0.0 101681
11:00+27se1181100 0.1 1017617
14:00+31wnw2359100 0.4 10161416
17:00+31nw1360100 0.7 10141167
20:00+25n1187100 3.5 101614
21 september, tue
tue2123:00+24nw119485 0.0 101724
02:00+23wnw229691 0.1 101663
05:00+23nw23989 0.0 101692
08:00+23nnw149718 0.0 1017138
11:00+28n227446 0.1 1018830
14:00+32nw235578 0.2 10171648
17:00+31nnw23597 0.8 10151143
20:00+25n22885 3.3 101644
22 september, wed
wed2223:00+24nnw11921 0.1 101611
02:00+23nw12940 0.1 101626
05:00+22nw23961 0.0 101567
08:00+23nnw12955 0.0 101561
11:00+27nnw238013 0.8 1015604
14:00+27nnw337611 3.3 1014805
17:00+29n336465 0.7 10121246
20:00+25n24807 0.8 101387